Contact Us:
Email: info@sawbill.com
Phone: (218)663-7150
Fax: (218)663-7980
Mail: 4620 Sawbill Trail
Box 2129
Tofte, MN 55615


Powered by
Movable Type 3.15
 
Sawbill Weather History Archives: October 2014
Current Sawbill Weather History | « September 2014 | November 2014 »


Date

High
Temperature

Low
Temperature

Barometric
Pressure

Relative
Humidity 7AM

9 AM
Temperature

Moisture

Snow

10/31/14 31 14 30.30 71% 18 0
10/30/14 39 23 30.36 64% 25 .13" 1"
10/29/14 38 34 30.00 90% 35 .03"
10/28/14 41 35 29.98 94% 34 Trace
10/27/14 53 40 29.72 88% 41 .07"
10/26/14 51 33 29.80 77% 40 .16"
10/25/14 51 33 30.00 70% 33 0
10/24/14 61 45 29.86 51% 46 0
10/23/14 51 44 29.96 98% 45 .06"
10/22/14 49 37 30.00 87% 44 .03"
10/21/14 39 35 30.16 96% 37 0
10/20/14 45 35 30.14 73% 35 .04"
10/19/14 52 34 29.98 84% 44 Trace
10/18/14 42 30 29.98 93% 34 0
10/17/14 45 30 30.10 74% 30 .08"
10/16/14 54 32 29.78 94% 43 0
10/15/14 57 32 29.92 73% 32 0
10/14/14 58 35 30.05 78% 35 0
10/13/14 50 40 29.98 96% 43 .04"
10/12/14 54 33 29.92 82% 40 0
10/11/14 52 28 29.98 77% 33 0
10/10/14 47 29 30.14 75% 29 0
10/9/14 45 37 30.12 76% 39 Trace
10/8/14 42 33 30.02 86% 38 .02"
10/7/14 41 34 29.84 90% 34 .18" Trace
10/6/14 47 36 29.64 68% 36 Trace
10/5/14 44 33 29.56 57% 36 0
10/4/14 39 33 29.66 92% 34 .2" Trace
10/3/14 50 37 29.72 81% 37 .17"
10/2/14 49 38 29.88 80% 38 .12"
10/1/14 59 50 29.27 98% 48 .53"
 


Home I Trip Planning I Rentals and Outfitting I Reservations I Campgrounds I Sawbill Store I Sawbill News I Contact

© 1997 - 2017, Sawbill Canoe Outfitters, Inc. I Privacy Policy